Weather History for KPVU - September, 2011

Change the Weather History Date:

Sunday, September 11, 2011

  Actual Average Record
Temperature  
Mean Temperature 65 °F -  
Max Temperature 75 °F 77 °F 94 °F (1990)
Min Temperature 55 °F 49 °F 41 °F (2005)
Growing Degree Days 15 (Base 50)    
Moisture  
Dew Point 48 °F    
Average Humidity 59    
Maximum Humidity 82    
Minimum Humidity 36    
Precipitation  
Precipitation 0.00 in - - ()
Sea Level Pressure  
Sea Level Pressure 30.19 in    
Wind  
Wind Speed 8 mph (SE)    
Max Wind Speed 39 mph    
Max Gust Speed 52 mph    
Visibility 12 miles    
Events Rain    
Averages and records for this station are not official NWS values.
T = Trace of Precipitation, MM = Missing Value Source: NWS Daily Summary

Daily Weather History Graph

Daily Weather History Graph

Search for Another Location

Airport or City:

Trip Planner

Search our weather history database for the weather conditions in past years. The results will help you decide how hot, cold, wet, or windy it might be!

Date:

Astronomy

Sep. 11, 2011 Rise Set
Actual Time 7:03 AM MDT 7:42 PM MDT
Civil Twilight 6:36 AM MDT 8:09 PM MDT
Nautical Twilight 6:03 AM MDT 8:42 PM MDT
Astronomical Twilight 5:30 AM MDT 9:15 PM MDT
Moon 7:06 PM MDT (9/11) 6:26 AM MDT (9/11)
Length of Visible Light 13h 33m
Length of Day
12h 38m
Full, 100% of the Moon is Illuminated
Sep 11
Full
Sep 12
Full
Sep 20
Last Quarter
Sep 27
New
Oct 3
First Quarter

Hourly Weather History & Observations

Time (MDT) Temp. Dew Point Humidity Pressure Visibility Wind Dir Wind Speed Gust Speed Precip Events Conditions
12:35 AM 62.6 °F 46.4 °F 55% 30.15 in 10.0 mi ESE 10.4 mph - N/A   Overcast
12:55 AM 62.6 °F 44.6 °F 52% 30.15 in 10.0 mi ESE 9.2 mph - N/A   Overcast
1:15 AM 62.6 °F 44.6 °F 52% 30.15 in 10.0 mi SE 8.1 mph - N/A   Mostly Cloudy
1:35 AM 59.0 °F 44.6 °F 59% 30.15 in 10.0 mi ENE 4.6 mph - N/A   Scattered Clouds
1:55 AM 62.6 °F 46.4 °F 55% 30.15 in 10.0 mi SE 12.7 mph - N/A   Clear
2:15 AM 60.8 °F 46.4 °F 59% 30.15 in 10.0 mi SE 11.5 mph - N/A   Clear
2:35 AM 60.8 °F 46.4 °F 59% 30.15 in 10.0 mi ESE 9.2 mph - N/A   Clear
2:55 AM 60.8 °F 46.4 °F 59% 30.15 in 10.0 mi ESE 6.9 mph - N/A   Clear
3:15 AM 62.6 °F 46.4 °F 55% 30.15 in 10.0 mi SE 12.7 mph - N/A   Clear
3:35 AM 60.8 °F 46.4 °F 59% 30.15 in 10.0 mi Calm Calm - N/A   Clear
3:55 AM 60.8 °F 46.4 °F 59% 30.15 in 10.0 mi Calm Calm - N/A   Clear
4:15 AM 59.0 °F 44.6 °F 59% 30.16 in 10.0 mi Calm Calm - N/A   Clear
4:55 AM 60.8 °F 44.6 °F 55% 30.16 in 10.0 mi Calm Calm - N/A   Clear
5:15 AM 59.0 °F 46.4 °F 63% 30.17 in 10.0 mi Calm Calm - N/A   Clear
5:35 AM 57.2 °F 46.4 °F 67% 30.17 in 10.0 mi SSE 9.2 mph - N/A   Clear
6:15 AM 57.2 °F 46.4 °F 67% 30.18 in 10.0 mi ENE 3.5 mph - N/A   Scattered Clouds
6:35 AM 55.4 °F 46.4 °F 72% 30.18 in 10.0 mi Calm Calm - N/A   Scattered Clouds
6:51 AM 55.4 °F 44.6 °F 67% 30.18 in 15.0 mi Calm Calm - N/A   Scattered Clouds
8:47 AM 62.6 °F 46.4 °F 55% 30.21 in 15.0 mi South 3.5 mph - N/A   Mostly Cloudy
9:48 AM 66.2 °F 48.2 °F 52% 30.24 in 15.0 mi South 10.4 mph - N/A   Mostly Cloudy
10:47 AM 69.8 °F 48.2 °F 46% 30.25 in 15.0 mi SE 4.6 mph - N/A   Mostly Cloudy
11:59 AM 71.6 °F 46.4 °F 41% 30.24 in 15.0 mi Calm Calm - N/A   Mostly Cloudy
12:49 PM 71.6 °F 48.2 °F 43% 30.23 in 15.0 mi West 5.8 mph - N/A   Mostly Cloudy
1:47 PM 73.4 °F 44.6 °F 36% 30.21 in 15.0 mi WSW 3.5 mph - N/A   Mostly Cloudy
2:55 PM 75.2 °F 46.4 °F 36% 30.18 in 15.0 mi Calm Calm - N/A   Mostly Cloudy
5:50 PM 71.6 °F 48.2 °F 43% 30.18 in 15.0 mi SSE 39.1 mph 51.8 mph N/A   Overcast
6:50 PM 60.8 °F 51.8 °F 72% 30.27 in 15.0 mi ESE 11.5 mph 27.6 mph N/A Rain Light Rain Showers
7:50 PM 59.0 °F 53.6 °F 82% 30.24 in 15.0 mi ESE 18.4 mph - N/A   Overcast
8:50 PM 60.8 °F 51.8 °F 72% 30.20 in 15.0 mi South 11.5 mph - N/A   Overcast
9:35 PM 60.8 °F 51.8 °F 72% 30.21 in 10.0 mi South 18.4 mph - N/A   Clear
9:55 PM 60.8 °F 51.8 °F 72% 30.23 in 10.0 mi SSE 25.3 mph 28.8 mph N/A   Clear
10:15 PM 60.8 °F 50.0 °F 68% 30.23 in 10.0 mi South 15.0 mph - N/A   Clear
10:35 PM 60.8 °F 50.0 °F 68% 30.23 in 10.0 mi South 10.4 mph - N/A   Clear
10:55 PM 60.8 °F 51.8 °F 72% 30.23 in 10.0 mi South 12.7 mph - N/A   Clear
11:15 PM 60.8 °F 51.8 °F 72% 30.24 in 10.0 mi SE 10.4 mph - N/A   Clear
11:35 PM 62.6 °F 50.0 °F 63% 30.25 in 10.0 mi SE 15.0 mph - N/A   Clear